When you browse on this site, cookies collect data to enhance your experience and personalize the content and advertising you see.
Visit our Privacy Policy to learn more. By continuing to use the site, you agree to this use of cookies and data.
  • In Sweden
  • List of Countries
  • For 7 days
  • Water Temperature
  • Weather Map
  • Weather Widgets
  • user-avatar
    Login

    Hourly Weather Andora

    Today, 19 October, Saturday

    Time Temperature Precipitation Wind Pressure Humidity
    00:00 +8°C° 0 mm 2 mps 621 mmHg 90%
    01:00 +8°C° 0.1 mm 2 mps 620 mmHg 91%
    02:00 +8°C° 0.1 mm 2 mps 620 mmHg 92%
    03:00 +7°C° 0.1 mm 2 mps 620 mmHg 93%
    04:00 +7°C° 0.1 mm 2 mps 619 mmHg 94%
    05:00 +7°C° 0.1 mm 2 mps 619 mmHg 94%
    06:00 +7°C° 0 mm 2 mps 619 mmHg 95%
    07:00 +8°C° 0 mm 2 mps 619 mmHg 89%
    08:00 +9°C° 0 mm 3 mps 620 mmHg 83%
    09:00 +10°C° 0 mm 3 mps 620 mmHg 77%
    10:00 +10°C° 0.1 mm 3 mps 620 mmHg 76%
    11:00 +11°C° 0.1 mm 3 mps 619 mmHg 76%
    12:00 +11°C° 0.1 mm 3 mps 619 mmHg 76%
    13:00 +11°C° 0.1 mm 3 mps 619 mmHg 74%
    14:00 +11°C° 0.1 mm 3 mps 619 mmHg 72%
    15:00 +11°C° 0.1 mm 3 mps 618 mmHg 70%
    16:00 +10°C° 0.1 mm 3 mps 618 mmHg 75%
    17:00 +9°C° 0.1 mm 3 mps 617 mmHg 81%
    18:00 +8°C° 0.1 mm 3 mps 617 mmHg 87%
    19:00 +8°C° 0.1 mm 3 mps 617 mmHg 88%
    20:00 +8°C° 0.1 mm 3 mps 617 mmHg 90%
    21:00 +8°C° 0.1 mm 3 mps 617 mmHg 91%
    22:00 +8°C° 0.1 mm 3 mps 617 mmHg 92%
    23:00 +8°C° 0.1 mm 3 mps 617 mmHg 92%

    Tomorrow, 20 October, Sunday

    Time Temperature Precipitation Wind Pressure Humidity
    00:00 +7°C° 0.1 mm 3 mps 617 mmHg 92%
    01:00 +7°C° 0.4 mm 3 mps 616 mmHg 93%
    02:00 +8°C° 0.4 mm 3 mps 616 mmHg 94%
    03:00 +8°C° 0.4 mm 3 mps 616 mmHg 94%
    04:00 +8°C° 3.7 mm 3 mps 616 mmHg 95%
    05:00 +7°C° 3.7 mm 4 mps 616 mmHg 96%
    06:00 +7°C° 3.7 mm 4 mps 616 mmHg 97%
    07:00 +7°C° 4.1 mm 4 mps 616 mmHg 96%
    08:00 +6°C° 4.1 mm 4 mps 616 mmHg 94%
    09:00 +6°C° 4.1 mm 4 mps 617 mmHg 92%
    10:00 +7°C° 0.7 mm 3 mps 617 mmHg 90%
    11:00 +7°C° 0.7 mm 3 mps 617 mmHg 88%
    12:00 +7°C° 0.7 mm 3 mps 617 mmHg 85%
    13:00 +5°C° 0.5 mm 3 mps 617 mmHg 85%
    14:00 +6°C° 0.5 mm 2 mps 617 mmHg 85%
    15:00 +5°C° 0.5 mm 2 mps 617 mmHg 85%
    16:00 +4°C° 0 mm 2 mps 618 mmHg 88%
    17:00 +5°C° 0 mm 1 mps 618 mmHg 91%
    18:00 +4°C° 0 mm 1 mps 618 mmHg 93%
    19:00 +4°C° 0 mm 1 mps 619 mmHg 93%
    20:00 +3°C° 0 mm 1 mps 619 mmHg 93%
    21:00 +3°C° 0 mm 1 mps 620 mmHg 93%
    22:00 +3°C° 0 mm 1 mps 620 mmHg 93%
    23:00 +3°C° 0 mm 1 mps 620 mmHg 93%

    Day after tomorrow, 21 October, Monday

    Time Temperature Precipitation Wind Pressure Humidity
    00:00 +2°C° 0 mm 1 mps 620 mmHg 93%
    01:00 +2°C° 0 mm 1 mps 620 mmHg 93%
    02:00 +2°C° 0 mm 1 mps 620 mmHg 93%
    03:00 +2°C° 0 mm 1 mps 620 mmHg 93%
    04:00 +2°C° 0 mm 1 mps 620 mmHg 93%
    05:00 +2°C° 0 mm 1 mps 621 mmHg 93%
    06:00 +1°C° 0 mm 0 mps 621 mmHg 93%
    07:00 +3°C° 0 mm 1 mps 622 mmHg 88%
    08:00 +4°C° 0 mm 1 mps 623 mmHg 84%
    09:00 +6°C° 0 mm 1 mps 623 mmHg 79%
    10:00 +6°C° 0.1 mm 1 mps 624 mmHg 77%
    11:00 +7°C° 0.1 mm 1 mps 624 mmHg 75%
    12:00 +7°C° 0.1 mm 1 mps 624 mmHg 72%
    13:00 +7°C° 0.1 mm 1 mps 624 mmHg 73%
    14:00 +7°C° 0.1 mm 1 mps 624 mmHg 74%
    15:00 +7°C° 0.1 mm 1 mps 624 mmHg 75%
    16:00 +6°C° 0.1 mm 1 mps 624 mmHg 82%
    17:00 +5°C° 0.1 mm 1 mps 623 mmHg 88%
    18:00 +2°C° 0.1 mm 0 mps 623 mmHg 95%
    19:00 +3°C° 0 mm 1 mps 623 mmHg 94%
    20:00 +3°C° 0 mm 1 mps 623 mmHg 93%
    21:00 +2°C° 0 mm 1 mps 623 mmHg 91%
    22:00 +2°C° 0 mm 1 mps 623 mmHg 89%
    23:00 +2°C° 0 mm 1 mps 623 mmHg 87%

    22 October, Tuesday

    Time Temperature Precipitation Wind Pressure Humidity
    00:00 +2°C° 0 mm 1 mps 623 mmHg 85%
    01:00 +3°C° 0 mm 1 mps 623 mmHg 85%
    02:00 +3°C° 0 mm 1 mps 623 mmHg 85%
    03:00 +3°C° 0 mm 1 mps 622 mmHg 85%
    04:00 +3°C° 0.5 mm 1 mps 622 mmHg 88%
    05:00 +3°C° 0.5 mm 1 mps 622 mmHg 92%
    06:00 +3°C° 0.5 mm 1 mps 622 mmHg 95%
    07:00 +2°C° 3.3 mm 2 mps 621 mmHg 96%
    08:00 +2°C° 3.3 mm 2 mps 621 mmHg 97%
    09:00 +2°C° 3.3 mm 2 mps 621 mmHg 98%
    10:00 +2°C° 3.1 mm 2 mps 621 mmHg 97%
    11:00 +2°C° 3.1 mm 2 mps 620 mmHg 96%
    12:00 +2°C° 3.1 mm 2 mps 620 mmHg 95%
    13:00 +3°C° 0.3 mm 2 mps 620 mmHg 95%
    14:00 +3°C° 0.3 mm 2 mps 620 mmHg 96%
    15:00 +4°C° 0.3 mm 2 mps 620 mmHg 96%
    16:00 +4°C° 0.2 mm 2 mps 620 mmHg 96%
    17:00 +4°C° 0.2 mm 2 mps 620 mmHg 96%
    18:00 +4°C° 0.2 mm 2 mps 620 mmHg 96%
    19:00 +4°C° 0.4 mm 2 mps 620 mmHg 97%
    20:00 +5°C° 0.4 mm 2 mps 620 mmHg 97%
    21:00 +6°C° 0.4 mm 1 mps 620 mmHg 97%
    22:00 +6°C° 0.8 mm 1 mps 620 mmHg 97%
    23:00 +6°C° 0.8 mm 1 mps 619 mmHg 98%

    23 October, Wednesday

    Time Temperature Precipitation Wind Pressure Humidity
    00:00 +6°C° 0.8 mm 1 mps 619 mmHg 98%
    01:00 +6°C° 3.6 mm 1 mps 618 mmHg 98%
    02:00 +5°C° 3.6 mm 2 mps 618 mmHg 97%
    03:00 +5°C° 3.6 mm 2 mps 617 mmHg 97%
    04:00 +5°C° 4.2 mm 2 mps 617 mmHg 97%
    05:00 +4°C° 4.2 mm 2 mps 616 mmHg 97%
    06:00 +4°C° 4.2 mm 2 mps 616 mmHg 97%
    07:00 +3°C° 8.1 mm 3 mps 615 mmHg 97%
    08:00 +3°C° 8.1 mm 3 mps 614 mmHg 97%
    09:00 +3°C° 8.1 mm 3 mps 613 mmHg 97%
    10:00 +3°C° 5 mm 3 mps 613 mmHg 97%
    11:00 +3°C° 5 mm 3 mps 613 mmHg 97%
    12:00 +3°C° 5 mm 3 mps 613 mmHg 97%
    13:00 +3°C° 1.9 mm 3 mps 612 mmHg 97%
    14:00 +4°C° 1.9 mm 3 mps 612 mmHg 97%
    15:00 +5°C° 1.9 mm 2 mps 612 mmHg 97%
    16:00 +5°C° 1.9 mm 2 mps 612 mmHg 97%
    17:00 +4°C° 1.9 mm 2 mps 612 mmHg 98%
    18:00 +5°C° 1.9 mm 1 mps 612 mmHg 98%
    19:00 +5°C° 0.5 mm 1 mps 613 mmHg 98%
    20:00 +4°C° 0.5 mm 2 mps 613 mmHg 97%
    21:00 +4°C° 0.5 mm 2 mps 613 mmHg 97%
    22:00 +3°C° 0.1 mm 2 mps 613 mmHg 96%
    23:00 +3°C° 0.1 mm 2 mps 613 mmHg 96%

    24 October, Thursday

    Time Temperature Precipitation Wind Pressure Humidity
    00:00 +3°C° 0.1 mm 2 mps 613 mmHg 95%
    01:00 +3°C° 0.1 mm 2 mps 614 mmHg 95%
    02:00 +3°C° 0.1 mm 2 mps 614 mmHg 95%
    03:00 +4°C° 0.1 mm 2 mps 614 mmHg 94%
    04:00 +3°C° 0.1 mm 2 mps 614 mmHg 93%
    05:00 +3°C° 0.1 mm 2 mps 614 mmHg 92%
    06:00 +3°C° 0.1 mm 2 mps 614 mmHg 90%
    07:00 +4°C° 0 mm 2 mps 615 mmHg 89%
    08:00 +5°C° 0 mm 2 mps 615 mmHg 88%
    09:00 +6°C° 0 mm 2 mps 616 mmHg 87%
    10:00 +6°C° 0 mm 2 mps 617 mmHg 85%
    11:00 +7°C° 0 mm 2 mps 617 mmHg 84%
    12:00 +7°C° 0 mm 2 mps 618 mmHg 82%
    13:00 +7°C° 0.3 mm 2 mps 618 mmHg 85%
    14:00 +6°C° 0.3 mm 2 mps 617 mmHg 87%
    15:00 +6°C° 0.3 mm 2 mps 617 mmHg 89%
    16:00 +5°C° 0.5 mm 2 mps 618 mmHg 92%
    17:00 +5°C° 0.5 mm 2 mps 618 mmHg 94%
    18:00 +4°C° 0.5 mm 2 mps 618 mmHg 96%
    19:00 +4°C° 0.5 mm 2 mps 619 mmHg 96%
    20:00 +4°C° 0.5 mm 2 mps 619 mmHg 96%
    21:00 +4°C° 0.5 mm 2 mps 620 mmHg 95%
    22:00 +4°C° 0.2 mm 2 mps 620 mmHg 95%
    23:00 +4°C° 0.2 mm 2 mps 620 mmHg 95%
    Show more